Regional Weather Roundup
Issued by NWS State College, PA

Home | Current Version | Previous Version | Text Only | Print | Product List | Glossary Off
Versions: 1 2 3 4 5 6 7 8 9 10 11 12 13 14 15 16 17 18 19 20 21 22 23 24 25 26 27 28 29 30 31 32 33 34 35 36 37 38 39 40 41 42 43 44 45 46 47 48 49 50

000
ASUS41 KCTP 212010
RWRCTP

REGIONAL WEATHER ROUNDUP
NATIONAL WEATHER SERVICE STATE COLLEGE PA
400 PM EDT FRI JUL 21 2017

Note: "fair" indicates few or no clouds below 12,000 feet with no
significant weather and/or obstructions to visibility.

* = STATION THAT DOES NOT REPORT PRECIPITATION /E.G. RAIN...SNOW...ETC/
    THUNDER OR FOG.

PAZ002>004-007>009-013>016-020>023-029>032-212100-
WESTERN PENNSYLVANIA

CITY           SKY/WX    TMP DP  RH WIND       PRES   REMARKS
ERIE           MOSUNNY   81  70  69 NW10      29.96S
MEADVILLE      PTSUNNY   85  67  54 W7        29.98F
FRANKLIN*      PTSUNNY   84  66  54 W6        29.99F
NEW CASTLE     FAIR      88  70  55 SW3       29.97F
BEAVER COUNTY  MOSUNNY   88  68  51 CALM      29.97F
BUTLER*        CLOUDY    88  72  58 SW5       29.98F
PITTSBURGH INT CLOUDY    86  71  60 CALM      29.97F
PITTSBURGH     CLOUDY    85  70  60 E6        29.97F
INDIANA*       SUNNY     84  70  61 W6        30.01F
LATROBE        PTSUNNY   82  73  74 SE7       29.99F
WASHINGTON CO* CLOUDY    82  73  74 CALM      29.98F
$$

PAZ004>006-010>012-017>019-024>028-033>037-041-042-045-046-049>053-212100-
CENTRAL PENNSYLVANIA

CITY           SKY/WX    TMP DP  RH WIND       PRES   REMARKS
BRADFORD       MOSUNNY   83  63  50 W9        30.01S
DUBOIS         MOSUNNY   84  67  56 W10       29.99F
CLEARFIELD     MOSUNNY   86  66  51 SW9       29.99S
JOHNSTOWN      PTSUNNY   81  68  64 NW8       30.03F
ALTOONA        PTSUNNY   85  69  58 N8        29.98F
STATE COLLEGE  MOSUNNY   86  68  54 SW6       29.96F
WILLIAMSPORT   MOSUNNY   91  70  49 MISG      29.89S HX  96
SELINSGROVE    MOSUNNY   88  74  63 SW8       29.92S HX  96
FT INDIANTOWN  MOSUNNY   90  69  50 SW9       29.92F
CAPITAL CITY   PTSUNNY   91  69  48 SW6       29.92S HX  96
HARRISBURG     PTSUNNY   90  71  53 VRB5      29.91F HX  96
YORK           PTSUNNY   90  73  57 CALM      29.92F HX  98
$$

PAZ038>040-043-044-047-048-054-055-060>062-067>071-212100-
EASTERN PENNSYLVANIA

CITY           SKY/WX    TMP DP  RH WIND       PRES   REMARKS
SCRANTON       CLOUDY    85  68  56 SW9       29.92F
MOUNT POCONO   CLOUDY    80  66  62 VRB3      29.98F
ALLENTOWN      MOSUNNY   90  68  48 SW8       29.90F
QUAKERTOWN*    CLOUDY    90  70  51 W7        29.93F HX  95
READING        CLOUDY    90  73  57 SW6       29.91S HX  98
LANCASTER      MOSUNNY   94  69  44 W13       29.92F HX  99
COATESVILLE    PTCLDY    88  72  58 SW6       29.96S
POTTSTOWN      CLOUDY    87  70  56 CALM      29.93F
BLUE BELL      CLOUDY    88  70  55 W5        29.92F
DOYLESTOWN     MOSUNNY   89  68  49 W8        29.90F
WILLOW GROVE   NOT AVBL
NORTH PHILA    PTSUNNY   93  71  48 W10       29.91S HX 100
PHILADELPHIA   CLOUDY    93  67  42 SW12      29.90F HX  96
$$




USA.gov is the U.S. government's official web portal to all federal, state and local government web resources and services.